Gogerbank, United Kingdom

2:04 AM GMT on February 22, 2017 (GMT +0000)
Edinburgh Airport

Weather History for EGPH - November, 2012

Change the Weather History Date:

Tuesday, November 13, 2012

  Actual Average Record
Temperature  
Mean Temperature 52 °F -  
Max Temperature 57 °F 46 °F 57 °F (2012)
Min Temperature 48 °F 35 °F 30 °F (2001)
Degree Days  
Heating Degree Days 12    
Growing Degree Days 2 (Base 50)    
Moisture  
Dew Point 50 °F    
Average Humidity 86    
Maximum Humidity 100    
Minimum Humidity 72    
Precipitation  
Precipitation 0.00 in 0.08 in - ()
Sea Level Pressure  
Sea Level Pressure 29.97 in    
Wind  
Wind Speed 11 mph ()    
Max Wind Speed 25 mph    
Max Gust Speed 40 mph    
Visibility 6.1 miles    
Events Rain    
Averages and records for this station are not official NWS values.
T = Trace of Precipitation, MM = Missing Value Source: Averaged Metar Reports

Daily Weather History Graph

Daily Weather History Graph

Search for Another Location

Airport or City:

Trip Planner

Search our weather history database for the weather conditions in past years. The results will help you decide how hot, cold, wet, or windy it might be!

Date:

Astronomy

Nov. 13, 2012 Rise Set
Actual Time 7:46 AM GMT 4:08 PM GMT
Civil Twilight 7:04 AM GMT 4:50 PM GMT
Nautical Twilight 6:18 AM GMT 5:35 PM GMT
Astronomical Twilight 5:35 AM GMT 6:19 PM GMT
Moon 7:07 AM GMT (11/13) 3:46 PM GMT (11/13)
Length of Visible Light 9h 45m
Length of Day
8h 22m
Waning Crescent, 0% of the Moon is Illuminated
Nov 13
Waning Crescent
Nov 13
New
Nov 20
First Quarter
Nov 28
Full
Dec 6
Last Quarter

Hourly Weather History & Observations

Time (GMT) Temp. Dew Point Humidity Pressure Visibility Wind Dir Wind Speed Gust Speed Precip Events Conditions
12:20 AM 55.4 °F 51.8 °F 88% 29.92 in 6.2 mi SW 10.4 mph - N/A   Mostly Cloudy
12:50 AM 55.4 °F 51.8 °F 88% 29.92 in 6.2 mi SW 11.5 mph - N/A   Mostly Cloudy
1:20 AM 55.4 °F 51.8 °F 88% 29.92 in 6.2 mi SW 9.2 mph - N/A   Mostly Cloudy
1:50 AM 53.6 °F 51.8 °F 94% 29.92 in 6.2 mi SW 8.1 mph - N/A   Mostly Cloudy
2:20 AM 53.6 °F 50.0 °F 88% 29.92 in 6.2 mi SW 8.1 mph - N/A   Scattered Clouds
2:50 AM 53.6 °F 50.0 °F 88% 29.95 in 6.2 mi WSW 6.9 mph - N/A   Mostly Cloudy
3:20 AM 51.8 °F 50.0 °F 94% 29.95 in 6.2 mi SW 8.1 mph - N/A   Scattered Clouds
3:50 AM 53.6 °F 50.0 °F 88% 29.95 in 6.2 mi SSW 11.5 mph - N/A   Partly Cloudy
4:20 AM 55.4 °F 50.0 °F 82% 29.95 in 6.2 mi SSW 10.4 mph - N/A   Scattered Clouds
4:50 AM 55.4 °F 50.0 °F 82% 29.92 in 6.2 mi SW 10.4 mph - N/A   Scattered Clouds
5:20 AM 55.4 °F 50.0 °F 82% 29.92 in 6.2 mi SSW 13.8 mph - N/A   Partly Cloudy
5:50 AM 55.4 °F 51.8 °F 88% 29.92 in 6.2 mi SW 10.4 mph - N/A   Scattered Clouds
6:20 AM 55.4 °F 51.8 °F 88% 29.92 in 6.2 mi SSW 4.6 mph - N/A   Mostly Cloudy
6:50 AM 55.4 °F 50.0 °F 82% 29.92 in 6.2 mi SSW 8.1 mph - N/A   Partly Cloudy
7:20 AM 55.4 °F 50.0 °F 82% 29.92 in 6.2 mi SSW 11.5 mph - N/A   Scattered Clouds
7:50 AM 55.4 °F 50.0 °F 82% 29.92 in 6.2 mi SSW 15.0 mph - N/A Rain Light Rain
8:20 AM 55.4 °F 51.8 °F 88% 29.95 in 6.2 mi South 18.4 mph - N/A   Mostly Cloudy
8:50 AM 57.2 °F 51.8 °F 82% 29.95 in 6.2 mi SSW 17.3 mph - N/A   Mostly Cloudy
9:20 AM 57.2 °F 51.8 °F 82% 29.95 in 6.2 mi SSW 25.3 mph 40.3 mph N/A   Mostly Cloudy
9:50 AM 57.2 °F 51.8 °F 82% 29.95 in 6.2 mi SSW 20.7 mph - N/A   Scattered Clouds
10:20 AM 57.2 °F 50.0 °F 77% 29.92 in 6.2 mi SSW 23.0 mph - N/A   Partly Cloudy
10:50 AM 57.2 °F 50.0 °F 77% 29.92 in 6.2 mi SSW 21.9 mph - N/A   Scattered Clouds
11:20 AM 57.2 °F 48.2 °F 72% 29.95 in 6.2 mi SSW 24.2 mph - N/A   Mostly Cloudy
11:50 AM 55.4 °F 48.2 °F 77% 29.95 in 6.2 mi SSW 18.4 mph - N/A   Mostly Cloudy
12:20 PM 55.4 °F 50.0 °F 82% 29.95 in 6.2 mi SSW 19.6 mph - N/A   Mostly Cloudy
12:50 PM 55.4 °F 50.0 °F 82% 29.95 in 6.2 mi SSW 18.4 mph - N/A   Mostly Cloudy
1:20 PM 57.2 °F 50.0 °F 77% 29.95 in 6.2 mi SSW 18.4 mph - N/A   Mostly Cloudy
1:50 PM 57.2 °F 50.0 °F 77% 29.95 in 6.2 mi SSW 18.4 mph - N/A   Mostly Cloudy
2:20 PM 57.2 °F 50.0 °F 77% 29.92 in 6.2 mi SSW 20.7 mph - N/A   Mostly Cloudy
2:50 PM 55.4 °F 50.0 °F 82% 29.95 in 6.2 mi SSW 17.3 mph - N/A   Mostly Cloudy
3:20 PM 57.2 °F 50.0 °F 77% 29.95 in 6.2 mi SSW 18.4 mph - N/A   Mostly Cloudy
3:50 PM 55.4 °F 50.0 °F 82% 29.95 in 6.2 mi SSW 15.0 mph - N/A   Mostly Cloudy
4:20 PM 55.4 °F 50.0 °F 82% 29.95 in 6.2 mi SSW 17.3 mph - N/A   Mostly Cloudy
4:50 PM 55.4 °F 51.8 °F 88% 29.95 in 4.3 mi SW 18.4 mph - N/A   Overcast
5:20 PM 55.4 °F 51.8 °F 88% 29.95 in 6.2 mi SW 15.0 mph - N/A   Mostly Cloudy
5:50 PM 55.4 °F 51.8 °F 88% 29.98 in 6.2 mi SW 15.0 mph - N/A Rain Light Rain
6:20 PM 55.4 °F 51.8 °F 88% 29.98 in 6.2 mi SW 12.7 mph - N/A Rain Light Rain
6:50 PM 51.8 °F 50.0 °F 94% 30.01 in 5.0 mi West 10.4 mph - N/A Rain Rain
7:20 PM 50.0 °F 48.2 °F 94% 30.01 in 6.2 mi WSW 10.4 mph - N/A Rain Light Rain
7:50 PM 50.0 °F 48.2 °F 94% 30.04 in 5.0 mi WSW 10.4 mph - N/A Rain Light Rain
8:20 PM 50.0 °F 48.2 °F 94% 30.04 in 6.2 mi SSW 6.9 mph - N/A Rain Light Rain
8:50 PM 50.0 °F 48.2 °F 94% 30.06 in 6.2 mi SW 5.8 mph - N/A Rain Light Rain
9:20 PM 50.0 °F 48.2 °F 94% 30.06 in 6.2 mi SSW 8.1 mph - N/A Rain Light Rain
9:50 PM 48.2 °F 48.2 °F 100% 30.06 in 6.2 mi SSW 8.1 mph - N/A   Light Drizzle
10:20 PM 48.2 °F 46.4 °F 93% 30.09 in 6.2 mi SSW 8.1 mph - N/A   Light Drizzle
10:50 PM 48.2 °F 46.4 °F 93% 30.09 in 6.2 mi Variable 3.5 mph - N/A Rain Light Rain
11:20 PM 48.2 °F 46.4 °F 93% 30.09 in 6.2 mi WSW 4.6 mph - N/A   Scattered Clouds
11:50 PM 48.2 °F 46.4 °F 93% 30.09 in 6.2 mi SSW 3.5 mph - N/A   Mostly Cloudy